This demonstration page uses our WeatherBlox Daily Observations layout. Learn more.

Left ArrowRight Arrow

39.92423, -83.80882

Hourly Observations for April 15, 2022

Temp ( °F °C ) Dew Point ( °F °C ) Humidity (%) Winds ( mph kmh ) Pressure ( in mb ) Visibility ( mi km ) Precip ( " mm )
12:56 am 00:56 Clear 46 7.8 30 -1.1 54 54 WSW 10 17 30.09 1019 10 16 0.00 0.00
1:56 am 01:56 Mostly Cloudy 47 8.3 30 -1.1 52 52 SW 9 15 30.09 1019 10 16 0.00 0.00
2:56 am 02:56 Partly Cloudy 46 7.8 30 -1.1 54 54 SW 7 11 30.07 1018 10 16 0.00 0.00
3:56 am 03:56 Clear 45 7.2 29 -1.7 54 54 S 7 11 30.07 1018 10 16 0.00 0.00
4:56 am 04:56 Clear 45 7.2 29 -1.7 54 54 S 8 13 30.06 1018 10 16 0.00 0.00
5:56 am 05:56 Clear 46 7.8 28 -2.2 50 50 SSW 10 17 30.05 1018 10 16 0.00 0.00
6:56 am 06:56 Clear 45 7.2 28 -2.2 52 52 SSW 10 17 30.06 1018 10 16 0.00 0.00
7:56 am 07:56 Sunny 47 8.3 28 -2.2 48 48 SSW 12 19 30.07 1018 10 16 0.00 0.00
8:56 am 08:56 Sunny 50 10 30 -1.1 46 46 SW 15 24 30.08 1019 10 16 0.00 0.00
9:56 am 09:56 Sunny 55 12.8 31 -0.6 40 40 SSW 15 24 30.08 1019 10 16 0.00 0.00
10:56 am 10:56 Sunny 60 15.6 32 0 35 35 SSW 18 30 30.05 1018 10 16 0.00 0.00
11:56 am 11:56 Sunny 63 17.2 29 -1.7 28 28 SSW 23 37 30.03 1017 10 16 0.00 0.00
12:56 pm 12:56 Sunny 65 18.3 30 -1.1 27 27 SSW 18 30 29.99 1016 10 16 0.00 0.00
1:56 pm 13:56 Sunny 67 19.4 28 -2.2 23 23 SSW 20 31 29.96 1015 10 16 0.00 0.00
2:56 pm 14:56 Sunny 68 20 26 -3.3 21 21 WSW 28 44 29.96 1015 10 16 0.00 0.00
3:56 pm 15:56 Sunny 68 20 26 -3.3 21 21 SW 25 41 29.94 1014 10 16 0.00 0.00
4:56 pm 16:56 Sunny 67 19.4 25 -3.9 20 20 SW 24 39 29.93 1014 10 16 0.00 0.00
5:56 pm 17:56 Sunny 66 18.9 27 -2.8 23 23 SW 21 33 29.93 1013 10 16 0.00 0.00
6:56 pm 18:56 Partly Cloudy 64 17.8 30 -1.1 28 28 WSW 15 24 29.93 1014 10 16 0.00 0.00
7:56 pm 19:56 Mostly Cloudy 63 17.2 29 -1.7 28 28 SW 14 22 29.93 1014 10 16 0.00 0.00
8:56 pm 20:56 Mostly Cloudy 62 16.7 28 -2.2 28 28 W 16 26 29.96 1015 10 16 0.00 0.00
9:56 pm 21:56 Cloudy 60 15.6 30 -1.1 32 32 W 23 37 29.96 1015 10 16 0.00 0.00
10:56 pm 22:56 Cloudy with Light Rain 58 14.4 38 3.3 48 48 SW 20 31 29.98 1015 10 16 0.00 0.00
11:56 pm 23:56 Mostly Cloudy 56 13.3 41 5 57 57 SSW 10 17 29.95 1014 10 16 0.00 0.00

Powered by AerisWeather